Location: *
(51.0333°S, 178.4667°E)
Time: 00:54:56
(UTC+00:00)

Cosmos 1943 - Pass Details

Date: 15 November 2019
Orbit: 835 x 848 km, 71.0° (Epoch: 10 December)

Event Time Altitude Azimuth Distance (km) Brightness Sun altitude
Rises 11:01:08 0° 215° (SW) 3,445 7.6 -19.6°
Reaches altitude 10° 11:03:44 10° 222° (SW) 2,505 6.5 -19.7°
Maximum altitude 11:09:00 38° 288° (WNW) 1,282 4.0 -19.9°
Enters shadow 11:11:05 29° 330° (NNW) 1,535 4.1 -20.0°
